Weather History for Seward, AK

Change the Weather History Date:

Saturday, October 20, 2012

  Actual Average Record
Temperature  
Mean Temperature 34 °F -  
Max Temperature 39 °F 41 °F 52 °F (1963)
Min Temperature 30 °F 32 °F 19 °F (1996)
Degree Days  
Heating Degree Days 30    
Moisture  
Dew Point 16 °F    
Average Humidity 48    
Maximum Humidity 59    
Minimum Humidity 38    
Precipitation  
Precipitation 0.00 in - - ()
Sea Level Pressure  
Sea Level Pressure 30.16 in    
Wind  
Wind Speed 13 mph (NNE)    
Max Wind Speed 21 mph    
Max Gust Speed 30 mph    
Visibility 10 miles    
Events      
Averages and records for this station are not official NWS values.
T = Trace of Precipitation, MM = Missing Value Source: NWS Daily Summary

Daily Weather History Graph

Daily Weather History Graph

Search for Another Location

Airport:

Trip Planner

Search our weather history database for the weather conditions in past years. The results will help you decide how hot, cold, wet, or windy it might be!

Date:

Astronomy

Oct. 20, 2012 Rise Set
Actual Time 8:51 AM AKDT 6:31 PM AKDT
Civil Twilight 8:08 AM AKDT 7:14 PM AKDT
Nautical Twilight 7:19 AM AKDT 8:03 PM AKDT
Astronomical Twilight 6:31 AM AKDT 8:51 PM AKDT
Moon 3:22 PM AKDT (10/20) 10:46 PM AKDT (10/20)
Length of Visible Light 11h 06m
Length of Day
9h 40m
Waxing Crescent, 35% of the Moon is Illuminated
Oct 20
Waxing Crescent
Oct 21
First Quarter
Oct 29
Full
Nov 6
Last Quarter
Nov 13
New

Hourly Weather History & Observations

Time (AKDT) Temp. Windchill Dew Point Humidity Pressure Visibility Wind Dir Wind Speed Gust Speed Precip Events Conditions
12:53 AM 30.9 °F 22.2 °F 18.0 °F 59% 30.05 in 10.0 mi NNE 10.4 mph 18.4 mph N/A   Clear
1:53 AM 32.0 °F 24.8 °F 18.0 °F 56% 30.07 in 10.0 mi North 8.1 mph - N/A   Clear
2:53 AM 33.1 °F 25.5 °F 18.0 °F 54% 30.07 in 10.0 mi North 9.2 mph 23.0 mph N/A   Clear
3:53 AM 33.1 °F 23.4 °F 18.0 °F 54% 30.09 in 10.0 mi NNE 13.8 mph 19.6 mph N/A   Clear
4:53 AM 33.1 °F 23.9 °F 18.0 °F 54% 30.10 in 10.0 mi NNE 12.7 mph 25.3 mph N/A   Clear
5:53 AM 33.1 °F 21.5 °F 18.0 °F 54% 30.11 in 10.0 mi NNE 19.6 mph 29.9 mph N/A   Clear
6:53 AM 30.9 °F 22.2 °F 17.1 °F 57% 30.13 in 10.0 mi North 10.4 mph 23.0 mph N/A   Clear
7:53 AM 30.9 °F 20.7 °F 17.1 °F 57% 30.14 in 10.0 mi North 13.8 mph - N/A   Clear
8:53 AM 30.9 °F 20.2 °F 16.0 °F 54% 30.15 in 10.0 mi NNE 15.0 mph 23.0 mph N/A   Clear
9:53 AM 32.0 °F 20.8 °F 14.0 °F 48% 30.16 in 10.0 mi NNE 17.3 mph 29.9 mph N/A   Clear
10:53 AM 34.0 °F 22.4 °F 15.1 °F 46% 30.17 in 10.0 mi North 20.7 mph 28.8 mph N/A   Clear
11:53 AM 35.1 °F 24.8 °F 16.0 °F 46% 30.17 in 10.0 mi NNE 17.3 mph 23.0 mph N/A   Clear
12:53 PM 36.0 °F 27.1 °F 15.1 °F 43% 30.18 in 10.0 mi NNE 13.8 mph 18.4 mph N/A   Clear
1:53 PM 37.9 °F 29.6 °F 15.1 °F 39% 30.19 in 10.0 mi North 13.8 mph 20.7 mph N/A   Clear
2:53 PM 37.9 °F 28.9 °F 15.1 °F 39% 30.17 in 10.0 mi North 16.1 mph 21.9 mph N/A   Clear
3:53 PM 39.0 °F 31.0 °F 15.1 °F 38% 30.17 in 10.0 mi North 13.8 mph 21.9 mph N/A   Clear
4:53 PM 39.0 °F 30.3 °F 15.1 °F 38% 30.17 in 10.0 mi NNE 16.1 mph 20.7 mph N/A   Clear
5:53 PM 37.0 °F 28.9 °F 16.0 °F 42% 30.18 in 10.0 mi North 12.7 mph - N/A   Clear
6:53 PM 35.1 °F 28.6 °F 16.0 °F 46% 30.20 in 10.0 mi North 8.1 mph 18.4 mph N/A   Clear
7:53 PM 34.0 °F 27.2 °F 16.0 °F 48% 30.21 in 10.0 mi North 8.1 mph - N/A   Clear
8:53 PM 34.0 °F 26.6 °F 17.1 °F 50% 30.22 in 10.0 mi NNE 9.2 mph - N/A   Unknown
9:53 PM 35.1 °F 25.9 °F 16.0 °F 46% 30.23 in 10.0 mi NE 13.8 mph 20.7 mph N/A   Clear
10:53 PM 35.1 °F 26.4 °F 14.0 °F 42% 30.23 in 10.0 mi NNE 12.7 mph 27.6 mph N/A   Clear
11:53 PM 33.1 °F 24.9 °F 16.0 °F 50% 30.24 in 10.0 mi NNE 10.4 mph - N/A   Clear